Moline, IL
on Sunday, December 15, 2013

Sunday
Previous Day Next Day
Daily Summary
 ActualAverageRecord
Temperature
Mean Temperature °F 26°F  
Max Temperature 16°F 34°F 57°F (1959)
Min Temperature 10°F 18°F -16°F (1989)
Degree Days
Heating Degree Days 52 39  
Month to date heating degree days 665 542  
Since 1 July heating degree days 2011 1773  
Cooling Degree Days 0 0  
Month to date cooling degree days 0 0  
Year to date cooling degree days 998 1004  
Moisture
Dew Point 6°F   
Average Humidity 70    
Maximum Humidity 80    
Minimum Humidity 59    
Precipitation
Precipitation 0.04 in 0.07 in 1.88 in (1992)
Month to date precipitation 0.39 1.19  
Year to date precipitation 38.41 36.97  
Snow
Snow 1.10 in 0.30 in in ()
Month to date snowfall 6.2 4.0  
Since 1 July snowfall 7.2 5.2  
Snow Depth 4.00 in   
Wind
Wind Speed 8 mph   
Max Wind Speed 18 mph   
Max Gust Speed 25 mph   
Visibility 7 miles   
Events Snow   

Key: T is trace of precipitation, MM is missing value
Source: NWS Daily Summary
Time(CST)TemperatureDew PointHumidity Pressure Visibility Wind DirectionWind SpeedGust SpeedPrecipitationEvents Conditions
12:52 AM 14.0°F 8.1°F 77% 30.09 in 10.0 miles West 13.8 mph - N/A   Clear
1:21 AM 15.8°F 8.6°F 73% 30.06 in 10.0 miles WNW 9.2 mph 20.7 mph N/A   Mostly Cloudy
1:52 AM 15.1°F 8.1°F 74% 30.09 in 8.0 miles West 12.7 mph - 0.00 in Snow Light Snow
2:52 AM 15.1°F 8.1°F 74% 30.09 in 9.0 miles West 15.0 mph 24.2 mph 0.00 in   Overcast
3:30 AM 14.0°F 6.8°F 73% 30.06 in 9.0 miles West 10.4 mph - N/A   Scattered Clouds
3:52 AM 12.9°F 6.1°F 74% 30.10 in 10.0 miles West 12.7 mph 20.7 mph N/A   Clear
4:52 AM 12.0°F 5.0°F 73% 30.10 in 10.0 miles West 11.5 mph - N/A   Clear
5:52 AM 10.0°F 1.0°F 67% 30.12 in 10.0 miles WNW 15.0 mph 20.7 mph N/A   Clear
6:52 AM 10.0°F 1.0°F 67% 30.13 in 10.0 miles WNW 11.5 mph - N/A   Overcast
7:52 AM 10.0°F 1.9°F 70% 30.13 in 10.0 miles WNW 10.4 mph - N/A   Overcast
8:52 AM 10.9°F 1.9°F 67% 30.14 in 10.0 miles WNW 11.5 mph - N/A   Overcast
9:52 AM 12.0°F 3.0°F 67% 30.16 in 10.0 miles WNW 10.4 mph - N/A   Overcast
10:52 AM 12.9°F 3.0°F 65% 30.15 in 10.0 miles WNW 10.4 mph - N/A   Overcast
11:52 AM 14.0°F 3.9°F 64% 30.14 in 10.0 miles WNW 10.4 mph - N/A   Overcast
12:52 PM 14.0°F 3.0°F 62% 30.12 in 10.0 miles WNW 8.1 mph - N/A   Overcast
1:52 PM 15.1°F 3.9°F 61% 30.12 in 10.0 miles WNW 8.1 mph - N/A   Mostly Cloudy
2:52 PM 15.1°F 5.0°F 64% 30.12 in 10.0 miles WNW 6.9 mph - N/A   Mostly Cloudy
3:52 PM 15.1°F 5.0°F 64% 30.13 in 10.0 miles WNW 6.9 mph - N/A   Overcast
4:52 PM 15.1°F 5.0°F 64% 30.13 in 10.0 miles NW 6.9 mph - N/A   Mostly Cloudy
5:52 PM 15.1°F 5.0°F 64% 30.13 in 10.0 miles NNW 4.6 mph - N/A   Overcast
6:52 PM 15.1°F 7.0°F 70% 30.14 in 6.0 miles North 3.5 mph - 0.00 in Snow Light Snow
7:52 PM 14.0°F 8.1°F 77% 30.15 in 4.0 miles NNW 3.5 mph - 0.00 in Snow Light Snow
8:41 PM 14.0°F 8.6°F 79% 30.11 in 2.5 miles Calm Calm - 0.00 in Snow Light Snow
8:52 PM 14.0°F 9.0°F 80% 30.14 in 2.5 miles Calm Calm - 0.00 in Snow Light Snow
9:07 PM 14.0°F 8.6°F 79% 30.12 in 2.0 miles Calm Calm - 0.00 in Snow Light Snow
9:14 PM 14.0°F 8.6°F 79% 30.12 in 1.0 miles Calm Calm - 0.01 in Snow Light Snow
9:52 PM 14.0°F 10.0°F 84% 30.16 in 4.0 miles Calm Calm - 0.02 in   Overcast
10:00 PM 14.0°F 8.6°F 79% 30.13 in 6.0 miles Calm Calm - N/A   Haze
10:23 PM 14.0°F 10.4°F 86% 30.12 in 1.8 miles Calm Calm - 0.00 in Snow Light Snow
10:39 PM 14.0°F 8.6°F 79% 30.12 in 3.0 miles Calm Calm - 0.00 in Snow Light Snow
10:52 PM 14.0°F 9.0°F 80% 30.15 in 2.5 miles Calm Calm - 0.01 in Snow Light Snow
10:58 PM 14.0°F 8.6°F 79% 30.11 in 1.8 miles Calm Calm - 0.00 in Snow Light Snow
11:19 PM 14.0°F 8.6°F 79% 30.11 in 2.0 miles NE 5.8 mph - 0.00 in Snow Light Snow
11:35 PM 14.0°F 8.6°F 79% 30.13 in 2.0 miles North 4.6 mph - 0.01 in Snow Light Snow
11:43 PM 14.0°F 8.6°F 79% 30.12 in 1.5 miles NNE 4.6 mph - 0.01 in Snow Light Snow
11:52 PM 14.0°F 9.0°F 80% 30.16 in 1.5 miles NNE 5.8 mph - 0.01 in Snow Light Snow
Astronomy
Sunrise:07:21 AM (CST) Moon Rise:03:38 PM (CST)12/15
Sunset:04:33 PM (CST) Moon Set:05:37 AM (CST)12/15
Moon Phase
Dec. 15 Dec. 17 Dec. 25 Jan. 01 Jan. 08

Copyright © 2017 The Weather Underground, Inc.















  Today is Tuesday, Nov. 22, the 327th day of 2016. There are 39 days left in the year.
1866 -- 150 years ago: Free luncheon is served at Phil Hein's Saloon every morning at 10 o'clock.
1891 -- 125 years ago: Bige Bickford was injured as he was coupling cars in the Rock Island Lines yard.
1916 -- 100 years ago: Clarence Granlund was elected president of the Lyceum at Augustana College.
1941 -- 75 years ago: Alice Schall, teacher at Grant School, supervised packing of Thanksgiving boxes for needy families.
1966 -- 50 years ago: The Rev. Lowell Campbell, pastor of the Milan Presbyterian Church, led the members of the congregation in a ground-breaking ceremony yesterday at the site of the new church one mile south of Andalusia Road on U.S. 67. The building will cost $285,000 and will be completed next fall.
1991 -- 25 years ago: Construction of a 200-room, $13.5 million hotel on the east end of the Moline civic center site will begin next spring, according to an agreement that was to be considered this morning by the Quad City Civic Center Authority.